SENTINEL-3B (43437 NORAD) Tracking and Keplerian Element Data

This shows tracking and keplerian element data for the satellite.

Feedback or suggestion? Click here.




ElementValue
Catalog43437
NameSENTINEL-3B
Epoch Orbit39858
Epoch Day354.07795869
Epoch Year2025
RAAN59.1578
Inclination98.6258
Eccentricity0.0001625
Argument of Perigee94.4485
Mean Anonmoly265.6881
Mean Motion14.26736631
Decay Rate1.01E-06
L11 43437U 18039A 25354.07795869 .00000101 00000+0 59719-4 0 9998
L22 43437 98.6258 59.1578 0001625 94.4485 265.6881 14.26736631398582



Live tracking and technical data element details for SENTINEL-3B (NORAD 43437). SENTINEL-3B can be tracked NOW for your location showing map with azimuth and elevation plus other details from your city location.







IsCatalogInMostPopularTable: catalog: 43437, numindb: 1146
Update: records affected: 1



GetName: 43437 SENTINEL-3B

Hit Count: updated at: Mon, 18 May 2026 09:34:40 GMT